Regional Weather Roundup
Issued by NWS

Home | Current Version | Previous Version | Text Only | Print | Product List | Glossary On
Versions: 1 2 3 4 5 6 7 8 9 10 11 12 13 14 15 16 17 18 19 20 21 22 23 24 25 26 27 28 29 30 31 32 33 34 35 36 37 38 39 40 41 42 43 44 45 46 47 48 49 50
000
ASUS43 KLSX 172159
RWRMO

WEATHER SUMMARY FOR MISSOURI
NATIONAL WEATHER SERVICE SPRINGFIELD MO
500 PM CDT FRI APR 17 2015

NOTE: "FAIR" INDICATES FEW OR NO CLOUDS BELOW 12,000 FEET WITH NO
       SIGNIFICANT WEATHER AND/OR OBSTRUCTIONS TO VISIBILITY.
       CURRENT SKY AND/OR WEATHER CONDITIONS ARE NOT AVAILABLE FOR
       CHILLICOTHE AND FARMINGTON.

MOZ001>031-035>038-043-044-053-054-172300-
...NORTHERN AND WESTERN MISSOURI...

CITY           SKY/WX    TMP DP  RH WIND       PRES   REMARKS
KANSAS CTY INT CLOUDY    74  56  53 E8        29.96S
KANSAS C DTWN  PTSUNNY   78  55  44 VRB5      29.94S
LEE`S SUMMIT   PTSUNNY   76  56  49 SE7       29.95F
ST JOSEPH      CLOUDY    75  55  49 E3        29.96F
CHILLICOTHE      N/A     78  55  44 E6        29.97F
KIRKSVILLE     MOSUNNY   77  57  50 SE6       29.98F

$$
MOZ066>068-077>081-088>096-101>105-172300-
...SOUTHWEST MISSOURI...

CITY           SKY/WX    TMP DP  RH WIND       PRES   REMARKS
SPRINGFIELD    SUNNY     76  55  48 S8        29.96F
JOPLIN         MOSUNNY   75  58  55 SE8       29.95S

$$
MOZ032>034-039>042-045>050-055>058-069>072-172300-
...CENTRAL MISSOURI...

CITY           SKY/WX    TMP DP  RH WIND       PRES   REMARKS
COLUMBIA       MOSUNNY   78  54  43 E10       29.96F
JEFFERSON CITY MOSUNNY   79  54  41 E8        29.94F
ROLLA          SUNNY     79  54  41 E3        29.95F
SEDALIA        MOSUNNY   78  55  44 SE10      29.96F
OSAGE BEACH    MOSUNNY   79  52  38 E6        29.95S

$$
MOZ051-052-059>065-172300-
...EAST CENTRAL MISSOURI...

CITY           SKY/WX    TMP DP  RH WIND       PRES   REMARKS
ST LOUIS INTL  MOSUNNY   78  55  44 E7        30.00F
SPIRIT OF STL  PTSUNNY   78  55  44 E7        29.97F
ST CHARLES     PTSUNNY   78  55  44 E10G16    29.98F

$$
MOZ072>076-082>087-097>100-106>115-172300-
...SOUTH CENTRAL AND SOUTHEAST MISSOURI...

CITY           SKY/WX    TMP DP  RH WIND       PRES   REMARKS
CAPE GIRARDEAU MOSUNNY   74  63  68 CALM      29.99F
FARMINGTON     MOSUNNY   73  61  64 SE7       30.03F
POPLAR BLUFF   PTSUNNY   72  63  73 E9        29.99F
WEST PLAINS    MOSUNNY   76  55  48 VRB7      29.99F

$$


USA.gov is the U.S. government's official web portal to all federal, state and local government web resources and services.